Time,TemperatureF,DewpointF,PressureIn,WindDirection,WindDirectionDegrees,WindSpeedMPH,WindSpeedGustMPH,Humidity,HourlyPrecipIn,Conditions,Clouds,dailyrainin,SoftwareType,DateUTC
2013-05-22 00:04:00,66.0,66.0,29.86,WSW,247,5.0,5.0,100,0.00,,,0.00,TxWx,2013-05-22 04:04:00,
2013-05-22 00:09:00,66.0,66.0,29.87,WNW,292,3.0,8.0,100,0.00,,,0.00,TxWx,2013-05-22 04:09:00,
2013-05-22 00:14:00,66.0,66.0,29.85,SE,135,0.0,1.0,100,0.00,,,0.00,TxWx,2013-05-22 04:14:00,
2013-05-22 00:19:00,67.0,67.0,29.83,East,90,1.0,3.0,100,0.00,,,0.00,TxWx,2013-05-22 04:19:00,
2013-05-22 00:24:00,67.0,67.0,29.82,NNW,337,7.0,8.0,100,0.00,,,0.00,TxWx,2013-05-22 04:24:00,
2013-05-22 00:34:00,67.0,67.0,29.84,SSW,202,5.0,5.0,100,0.00,,,0.00,TxWx,2013-05-22 04:34:00,
2013-05-22 00:39:00,66.0,66.0,29.82,West,270,4.0,4.0,100,0.00,,,0.01,TxWx,2013-05-22 04:39:00,
2013-05-22 00:44:00,66.0,66.0,29.83,SSE,157,0.0,0.0,100,0.60,,,0.01,TxWx,2013-05-22 04:44:00,
2013-05-22 00:49:00,66.0,66.0,29.83,WSW,247,6.0,7.0,100,0.60,,,0.01,TxWx,2013-05-22 04:49:00,
2013-05-22 00:54:00,66.0,66.0,29.86,NW,315,3.0,4.0,100,0.00,,,0.01,TxWx,2013-05-22 04:54:00,
2013-05-22 00:59:00,66.0,66.0,29.89,West,270,5.0,8.0,100,0.00,,,0.02,TxWx,2013-05-22 04:59:00,
2013-05-22 01:04:00,66.0,66.0,29.89,West,270,2.0,6.0,100,0.60,,,0.31,TxWx,2013-05-22 05:04:00,
2013-05-22 01:09:00,66.0,66.0,29.85,ENE,67,4.0,4.0,100,0.60,,,0.63,TxWx,2013-05-22 05:09:00,
2013-05-22 01:14:00,66.0,66.0,29.85,ESE,112,0.0,0.0,100,0.60,,,0.69,TxWx,2013-05-22 05:14:00,
2013-05-22 01:19:00,66.0,66.0,29.86,East,90,2.0,3.0,100,0.60,,,0.72,TxWx,2013-05-22 05:19:00,
2013-05-22 01:24:00,66.0,66.0,29.86,ESE,112,6.0,6.0,100,0.60,,,0.75,TxWx,2013-05-22 05:24:00,
2013-05-22 01:42:00,66.0,66.0,29.88,SSE,157,5.0,5.0,100,0.60,,,0.78,TxWx,2013-05-22 05:42:00,
2013-05-22 01:47:00,66.0,66.0,29.88,SE,135,3.0,3.0,100,0.60,,,0.81,TxWx,2013-05-22 05:47:00,
2013-05-22 01:53:00,66.0,66.0,29.87,East,90,0.0,0.0,100,0.60,,,0.82,TxWx,2013-05-22 05:53:00,
2013-05-22 01:58:00,66.0,66.0,29.87,East,90,1.0,1.0,100,0.60,,,0.84,TxWx,2013-05-22 05:58:00,
2013-05-22 02:06:00,66.0,66.0,29.86,East,90,3.0,4.0,100,0.60,,,0.88,TxWx,2013-05-22 06:06:00,
2013-05-22 02:11:00,66.0,66.0,29.85,NNW,337,1.0,2.0,100,0.60,,,0.90,TxWx,2013-05-22 06:11:00,
2013-05-22 02:16:00,66.0,66.0,29.84,ENE,67,3.0,4.0,100,0.60,,,0.92,TxWx,2013-05-22 06:16:00,
2013-05-22 02:22:00,66.0,66.0,29.83,East,90,3.0,4.0,100,0.60,,,0.94,TxWx,2013-05-22 06:22:00,
2013-05-22 02:27:00,66.0,66.0,29.83,ESE,112,0.0,0.0,100,0.60,,,0.96,TxWx,2013-05-22 06:27:00,
2013-05-22 02:32:00,66.0,66.0,29.83,ESE,112,0.0,0.0,100,0.60,,,0.97,TxWx,2013-05-22 06:32:00,
2013-05-22 02:37:00,66.0,66.0,29.83,SSE,157,4.0,4.0,100,0.60,,,0.98,TxWx,2013-05-22 06:37:00,
2013-05-22 02:42:00,66.0,66.0,29.83,SSE,157,3.0,3.0,100,0.60,,,0.99,TxWx,2013-05-22 06:42:00,
2013-05-22 02:47:00,66.0,66.0,29.82,SSE,157,1.0,1.0,100,0.60,,,0.99,TxWx,2013-05-22 06:47:00,
2013-05-22 02:52:00,66.0,66.0,29.83,South,180,4.0,4.0,100,0.60,,,0.99,TxWx,2013-05-22 06:52:00,
2013-05-22 02:57:00,66.0,66.0,29.83,ESE,112,3.0,3.0,100,0.60,,,0.99,TxWx,2013-05-22 06:57:00,
2013-05-22 03:02:00,65.0,65.0,29.82,East,90,3.0,4.0,100,0.00,,,1.00,TxWx,2013-05-22 07:02:00,
2013-05-22 03:07:00,65.0,65.0,29.84,SSE,157,5.0,8.0,100,0.00,,,1.02,TxWx,2013-05-22 07:07:00,
2013-05-22 03:12:00,65.0,65.0,29.83,SSE,157,5.0,6.0,100,0.60,,,1.04,TxWx,2013-05-22 07:12:00,
2013-05-22 03:17:00,65.0,66.0,29.81,SE,135,3.0,5.0,100,0.60,,,1.04,TxWx,2013-05-22 07:17:00,
2013-05-22 03:22:00,65.0,65.0,29.81,SE,135,2.0,4.0,100,0.60,,,1.04,TxWx,2013-05-22 07:22:00,
2013-05-22 03:27:00,65.0,65.0,29.81,South,180,5.0,6.0,100,0.60,,,1.04,TxWx,2013-05-22 07:27:00,
2013-05-22 03:32:00,75.0,71.0,29.84,ESE,112,8.0,8.0,88,0.00,,,1.16,TxWx,2013-05-22 07:32:00,
2013-05-22 03:33:00,65.0,65.0,29.82,South,180,7.0,8.0,100,0.00,,,1.04,TxWx,2013-05-22 07:33:00,
2013-05-22 03:34:00,76.0,72.0,29.83,SSE,157,6.0,7.0,88,0.00,,,1.16,TxWx,2013-05-22 07:34:00,
2013-05-22 03:35:00,75.0,71.0,29.84,SSE,157,10.0,11.0,88,0.00,,,1.16,TxWx,2013-05-22 07:35:00,
2013-05-22 03:36:00,76.0,72.0,29.84,South,180,8.0,10.0,88,0.00,,,1.16,TxWx,2013-05-22 07:36:00,
2013-05-22 03:38:00,65.0,65.0,29.83,SSE,157,4.0,6.0,100,0.00,,,1.04,TxWx,2013-05-22 07:38:00,
2013-05-22 03:43:00,65.0,65.0,29.82,South,180,0.0,0.0,100,0.00,,,1.04,TxWx,2013-05-22 07:43:00,
2013-05-22 03:48:00,65.0,65.0,29.82,SSE,157,4.0,5.0,100,0.00,,,1.04,TxWx,2013-05-22 07:48:00,
2013-05-22 03:53:00,65.0,65.0,29.81,NE,45,0.0,0.0,100,0.00,,,1.04,TxWx,2013-05-22 07:53:00,
2013-05-22 03:58:00,65.0,65.0,29.81,South,180,4.0,5.0,100,0.00,,,1.05,TxWx,2013-05-22 07:58:00,
2013-05-22 04:03:00,65.0,65.0,29.82,SE,135,3.0,5.0,100,0.60,,,1.05,TxWx,2013-05-22 08:03:00,
2013-05-22 04:08:00,65.0,65.0,29.83,South,180,9.0,11.0,100,0.60,,,1.05,TxWx,2013-05-22 08:08:00,
2013-05-22 04:13:00,65.0,65.0,29.82,SE,135,3.0,4.0,100,0.00,,,1.05,TxWx,2013-05-22 08:13:00,
2013-05-22 04:18:00,65.0,65.0,29.84,SSW,202,7.0,8.0,100,0.00,,,1.05,TxWx,2013-05-22 08:18:00,
2013-05-22 04:23:00,65.0,65.0,29.85,South,180,4.0,5.0,100,0.00,,,1.05,TxWx,2013-05-22 08:23:00,
2013-05-22 04:28:00,65.0,65.0,29.85,SSE,157,3.0,4.0,100,0.00,,,1.05,TxWx,2013-05-22 08:28:00,
2013-05-22 04:33:00,65.0,65.0,29.84,SSE,157,3.0,3.0,100,0.60,,,1.06,TxWx,2013-05-22 08:33:00,
2013-05-22 04:38:00,65.0,65.0,29.85,South,180,6.0,7.0,100,0.60,,,1.07,TxWx,2013-05-22 08:38:00,
2013-05-22 04:43:00,64.0,64.0,29.85,SSE,157,7.0,7.0,100,0.60,,,1.07,TxWx,2013-05-22 08:43:00,
2013-05-22 04:49:00,64.0,64.0,29.86,South,180,5.0,5.0,100,0.60,,,1.08,TxWx,2013-05-22 08:49:00,
2013-05-22 04:54:00,64.0,64.0,29.85,SSE,157,3.0,5.0,100,0.60,,,1.08,TxWx,2013-05-22 08:54:00,
2013-05-22 04:59:00,64.0,64.0,29.86,South,180,5.0,7.0,100,0.60,,,1.10,TxWx,2013-05-22 08:59:00,
2013-05-22 05:04:00,64.0,64.0,29.86,South,180,3.0,5.0,100,0.60,,,1.10,TxWx,2013-05-22 09:04:00,
2013-05-22 05:09:00,64.0,64.0,29.84,ENE,67,4.0,5.0,100,0.60,,,1.13,TxWx,2013-05-22 09:09:00,
2013-05-22 05:14:00,64.0,64.0,29.84,ESE,112,5.0,5.0,100,0.60,,,1.14,TxWx,2013-05-22 09:14:00,
2013-05-22 05:19:00,64.0,64.0,29.83,ESE,112,3.0,3.0,100,0.60,,,1.15,TxWx,2013-05-22 09:19:00,
2013-05-22 05:24:00,64.0,64.0,29.84,SSE,157,4.0,6.0,100,0.60,,,1.15,TxWx,2013-05-22 09:24:00,
2013-05-22 05:29:00,64.0,64.0,29.82,South,180,5.0,5.0,100,0.60,,,1.15,TxWx,2013-05-22 09:29:00,
2013-05-22 05:34:00,64.0,64.0,29.83,SSE,157,8.0,8.0,100,0.00,,,1.15,TxWx,2013-05-22 09:34:00,
2013-05-22 05:39:00,64.0,64.0,29.83,SSE,157,4.0,4.0,100,0.00,,,1.16,TxWx,2013-05-22 09:39:00,
2013-05-22 05:44:00,63.0,63.0,29.84,South,180,3.0,5.0,100,0.60,,,1.16,TxWx,2013-05-22 09:44:00,
2013-05-22 05:49:00,63.0,63.0,29.83,South,180,5.0,5.0,100,0.60,,,1.16,TxWx,2013-05-22 09:49:00,
2013-05-22 05:54:00,63.0,63.0,29.84,South,180,4.0,5.0,100,0.00,,,1.16,TxWx,2013-05-22 09:54:00,
2013-05-22 05:59:00,63.0,63.0,29.84,SSE,157,8.0,8.0,100,0.00,,,1.16,TxWx,2013-05-22 09:59:00,
2013-05-22 06:05:00,63.0,63.0,29.84,SSE,157,3.0,3.0,100,0.00,,,1.16,TxWx,2013-05-22 10:05:00,
2013-05-22 06:10:00,63.0,63.0,29.84,WSW,247,5.0,6.0,100,0.00,,,1.16,TxWx,2013-05-22 10:10:00,
2013-05-22 06:15:00,63.0,63.0,29.84,SSW,202,4.0,5.0,100,0.00,,,1.16,TxWx,2013-05-22 10:15:00,
2013-05-22 06:20:00,63.0,63.0,29.84,SSE,157,6.0,6.0,100,0.00,,,1.16,TxWx,2013-05-22 10:20:00,
2013-05-22 06:25:00,63.0,63.0,29.84,SSE,157,4.0,5.0,100,0.00,,,1.16,TxWx,2013-05-22 10:25:00,
2013-05-22 06:30:00,63.0,63.0,29.84,South,180,5.0,6.0,100,0.00,,,1.16,TxWx,2013-05-22 10:30:00,
2013-05-22 06:35:00,63.0,63.0,29.84,South,180,6.0,9.0,100,0.00,,,1.16,TxWx,2013-05-22 10:35:00,
2013-05-22 06:40:00,63.0,63.0,29.84,ESE,112,2.0,4.0,100,0.00,,,1.16,TxWx,2013-05-22 10:40:00,
2013-05-22 06:41:00,71.0,70.0,29.84,NW,315,0.0,0.0,97,0.60,,,1.33,TxWx,2013-05-22 10:41:00,
2013-05-22 06:42:00,71.0,70.0,29.83,North,0,0.0,0.0,97,0.60,,,1.34,TxWx,2013-05-22 10:42:00,
2013-05-22 06:43:00,71.0,70.0,29.83,North,0,0.0,0.0,97,0.60,,,1.34,TxWx,2013-05-22 10:43:00,
2013-05-22 06:44:00,71.0,70.0,29.83,North,0,3.0,4.0,97,0.60,,,1.34,TxWx,2013-05-22 10:44:00,
2013-05-22 06:45:00,63.0,63.0,29.84,South,180,3.0,5.0,100,0.00,,,1.16,TxWx,2013-05-22 10:45:00,
2013-05-22 06:50:00,63.0,63.0,29.85,SSE,157,4.0,5.0,100,0.00,,,1.16,TxWx,2013-05-22 10:50:00,
2013-05-22 06:55:00,63.0,63.0,29.85,SSE,157,5.0,6.0,100,0.00,,,1.16,TxWx,2013-05-22 10:55:00,
2013-05-22 07:00:00,64.0,64.0,29.85,SE,135,5.0,6.0,100,0.00,,,1.16,TxWx,2013-05-22 11:00:00,
2013-05-22 07:05:00,64.0,64.0,29.85,SE,135,4.0,6.0,100,0.00,,,1.16,TxWx,2013-05-22 11:05:00,
2013-05-22 07:10:00,64.0,64.0,29.85,SSE,157,3.0,3.0,100,0.00,,,1.16,TxWx,2013-05-22 11:10:00,
2013-05-22 07:16:00,64.0,64.0,29.85,SSE,157,3.0,3.0,100,0.00,,,1.16,TxWx,2013-05-22 11:16:00,
2013-05-22 07:21:00,64.0,64.0,29.85,SSE,157,4.0,4.0,100,0.00,,,1.16,TxWx,2013-05-22 11:21:00,
2013-05-22 07:26:00,64.0,64.0,29.85,SSE,157,6.0,6.0,100,0.00,,,1.16,TxWx,2013-05-22 11:26:00,
2013-05-22 07:31:00,65.0,65.0,29.85,ESE,112,4.0,5.0,100,0.00,,,1.16,TxWx,2013-05-22 11:31:00,
2013-05-22 07:36:00,65.0,65.0,29.85,SE,135,5.0,5.0,100,0.00,,,1.16,TxWx,2013-05-22 11:36:00,
2013-05-22 07:41:00,66.0,66.0,29.85,SSE,157,5.0,6.0,100,0.00,,,1.16,TxWx,2013-05-22 11:41:00,
2013-05-22 07:46:00,66.0,66.0,29.85,ESE,112,5.0,6.0,100,0.00,,,1.16,TxWx,2013-05-22 11:46:00,
2013-05-22 07:51:00,66.0,66.0,29.85,SE,135,2.0,6.0,100,0.00,,,1.16,TxWx,2013-05-22 11:51:00,
2013-05-22 07:56:00,66.0,66.0,29.85,South,180,7.0,7.0,100,0.00,,,1.16,TxWx,2013-05-22 11:56:00,
2013-05-22 08:01:00,66.0,66.0,29.85,SSE,157,13.0,13.0,100,0.00,,,1.16,TxWx,2013-05-22 12:01:00,
2013-05-22 08:06:00,66.0,67.0,29.85,South,180,5.0,5.0,100,0.00,,,1.16,TxWx,2013-05-22 12:06:00,
2013-05-22 08:11:00,66.0,66.0,29.85,ESE,112,6.0,8.0,100,0.00,,,1.16,TxWx,2013-05-22 12:11:00,
2013-05-22 08:16:00,67.0,67.0,29.85,South,180,10.0,11.0,100,0.00,,,1.16,TxWx,2013-05-22 12:16:00,
2013-05-22 08:22:00,67.0,67.0,29.85,SSE,157,6.0,8.0,100,0.00,,,1.16,TxWx,2013-05-22 12:22:00,
2013-05-22 08:27:00,66.0,66.0,29.85,SSE,157,7.0,13.0,100,0.00,,,1.16,TxWx,2013-05-22 12:27:00,
2013-05-22 08:32:00,67.0,67.0,29.85,SSE,157,10.0,10.0,100,0.00,,,1.16,TxWx,2013-05-22 12:32:00,
2013-05-22 08:37:00,67.0,67.0,29.85,ESE,112,6.0,8.0,100,0.00,,,1.16,TxWx,2013-05-22 12:37:00,
2013-05-22 08:42:00,67.0,67.0,29.85,ESE,112,8.0,8.0,100,0.00,,,1.16,TxWx,2013-05-22 12:42:00,
2013-05-22 08:47:00,67.0,67.0,29.86,South,180,10.0,11.0,100,0.00,,,1.16,TxWx,2013-05-22 12:47:00,
2013-05-22 08:52:00,67.0,67.0,29.86,SSE,157,5.0,5.0,100,0.00,,,1.16,TxWx,2013-05-22 12:52:00,
2013-05-22 08:57:00,68.0,68.0,29.86,SSE,157,6.0,7.0,100,0.00,,,1.16,TxWx,2013-05-22 12:57:00,
2013-05-22 09:02:00,68.0,68.0,29.86,South,180,4.0,6.0,100,0.00,,,1.16,TxWx,2013-05-22 13:02:00,
2013-05-22 09:07:00,68.0,68.0,29.86,SE,135,3.0,5.0,100,0.00,,,1.16,TxWx,2013-05-22 13:07:00,
2013-05-22 09:12:00,68.0,68.0,29.86,East,90,3.0,8.0,100,0.00,,,1.16,TxWx,2013-05-22 13:12:00,
2013-05-22 09:17:00,68.0,68.0,29.86,South,180,7.0,8.0,100,0.00,,,1.16,TxWx,2013-05-22 13:17:00,
2013-05-22 09:22:00,69.0,69.0,29.86,ESE,112,3.0,6.0,100,0.00,,,1.16,TxWx,2013-05-22 13:22:00,
2013-05-22 09:27:00,69.0,69.0,29.86,ESE,112,8.0,8.0,99,0.00,,,1.16,TxWx,2013-05-22 13:27:00,
2013-05-22 09:33:00,70.0,69.0,29.86,ESE,112,6.0,7.0,98,0.00,,,1.16,TxWx,2013-05-22 13:33:00,
2013-05-22 09:38:00,70.0,69.0,29.86,SSE,157,9.0,9.0,98,0.00,,,1.16,TxWx,2013-05-22 13:38:00,
2013-05-22 09:43:00,70.0,69.0,29.86,SSE,157,7.0,8.0,97,0.00,,,1.16,TxWx,2013-05-22 13:43:00,
2013-05-22 09:48:00,70.0,69.0,29.86,SSE,157,5.0,9.0,96,0.00,,,1.16,TxWx,2013-05-22 13:48:00,
2013-05-22 09:53:00,70.0,68.0,29.86,SSE,157,5.0,5.0,95,0.00,,,1.16,TxWx,2013-05-22 13:53:00,
2013-05-22 09:58:00,70.0,68.0,29.86,SSE,157,10.0,13.0,95,0.00,,,1.16,TxWx,2013-05-22 13:58:00,
2013-05-22 10:03:00,70.0,68.0,29.85,SSE,157,3.0,5.0,95,0.00,,,1.16,TxWx,2013-05-22 14:03:00,
2013-05-22 10:08:00,71.0,69.0,29.85,SSE,157,5.0,7.0,94,0.00,,,1.16,TxWx,2013-05-22 14:08:00,
2013-05-22 10:13:00,71.0,69.0,29.85,ESE,112,6.0,10.0,94,0.00,,,1.16,TxWx,2013-05-22 14:13:00,
2013-05-22 10:18:00,71.0,69.0,29.85,SSE,157,6.0,11.0,94,0.00,,,1.16,TxWx,2013-05-22 14:18:00,
2013-05-22 10:23:00,71.0,69.0,29.85,SSE,157,7.0,10.0,93,0.00,,,1.16,TxWx,2013-05-22 14:23:00,
2013-05-22 10:28:00,70.0,68.0,29.86,SSE,157,7.0,8.0,93,0.00,,,1.16,TxWx,2013-05-22 14:28:00,
2013-05-22 10:33:00,70.0,68.0,29.86,SE,135,11.0,11.0,93,0.00,,,1.16,TxWx,2013-05-22 14:33:00,
2013-05-22 10:38:00,70.0,68.0,29.85,South,180,6.0,6.0,93,0.00,,,1.16,TxWx,2013-05-22 14:38:00,
2013-05-22 10:44:00,71.0,69.0,29.85,SSE,157,8.0,11.0,93,0.00,,,1.16,TxWx,2013-05-22 14:44:00,
2013-05-22 10:49:00,71.0,69.0,29.85,SE,135,4.0,5.0,93,0.00,,,1.16,TxWx,2013-05-22 14:49:00,
2013-05-22 10:54:00,71.0,69.0,29.85,East,90,6.0,10.0,93,0.00,,,1.16,TxWx,2013-05-22 14:54:00,
2013-05-22 10:59:00,71.0,69.0,29.86,SSW,202,4.0,5.0,93,0.00,,,1.16,TxWx,2013-05-22 14:59:00,
2013-05-22 11:04:00,71.0,69.0,29.85,SE,135,11.0,12.0,92,0.00,,,1.16,TxWx,2013-05-22 15:04:00,
2013-05-22 11:09:00,71.0,69.0,29.85,SE,135,8.0,10.0,92,0.00,,,1.16,TxWx,2013-05-22 15:09:00,
2013-05-22 11:14:00,72.0,70.0,29.85,ESE,112,6.0,6.0,92,0.00,,,1.16,TxWx,2013-05-22 15:14:00,
2013-05-22 11:19:00,72.0,69.0,29.85,South,180,10.0,13.0,92,0.00,,,1.16,TxWx,2013-05-22 15:19:00,
2013-05-22 11:24:00,72.0,69.0,29.85,South,180,12.0,12.0,91,0.00,,,1.16,TxWx,2013-05-22 15:24:00,
2013-05-22 11:29:00,72.0,69.0,29.85,SSE,157,10.0,11.0,91,0.00,,,1.16,TxWx,2013-05-22 15:29:00,
2013-05-22 11:34:00,72.0,69.0,29.85,South,180,9.0,10.0,92,0.00,,,1.16,TxWx,2013-05-22 15:34:00,
2013-05-22 11:39:00,72.0,69.0,29.85,SSE,157,4.0,4.0,91,0.00,,,1.16,TxWx,2013-05-22 15:39:00,
2013-05-22 11:44:00,72.0,69.0,29.85,South,180,8.0,9.0,91,0.00,,,1.16,TxWx,2013-05-22 15:44:00,
2013-05-22 11:49:00,73.0,70.0,29.85,SE,135,3.0,5.0,91,0.00,,,1.16,TxWx,2013-05-22 15:49:00,
2013-05-22 11:55:00,73.0,70.0,29.85,SE,135,6.0,6.0,91,0.00,,,1.16,TxWx,2013-05-22 15:55:00,
2013-05-22 12:00:00,73.0,70.0,29.85,SSE,157,3.0,3.0,91,0.00,,,1.16,TxWx,2013-05-22 16:00:00,
2013-05-22 12:05:00,73.0,70.0,29.84,South,180,7.0,8.0,90,0.00,,,1.16,TxWx,2013-05-22 16:05:00,
2013-05-22 12:10:00,73.0,70.0,29.84,SE,135,5.0,7.0,90,0.00,,,1.16,TxWx,2013-05-22 16:10:00,
2013-05-22 12:15:00,74.0,71.0,29.84,SE,135,6.0,8.0,90,0.00,,,1.16,TxWx,2013-05-22 16:15:00,
2013-05-22 12:20:00,75.0,72.0,29.84,ESE,112,6.0,9.0,90,0.00,,,1.16,TxWx,2013-05-22 16:20:00,
2013-05-22 12:25:00,75.0,71.0,29.84,SE,135,8.0,8.0,88,0.00,,,1.16,TxWx,2013-05-22 16:25:00,
2013-05-22 12:30:00,75.0,71.0,29.84,South,180,9.0,9.0,88,0.00,,,1.16,TxWx,2013-05-22 16:30:00,
2013-05-22 12:36:00,76.0,72.0,29.84,ESE,112,8.0,8.0,88,0.00,,,1.16,TxWx,2013-05-22 16:36:00,
2013-05-22 12:41:00,76.0,72.0,29.83,ESE,112,3.0,8.0,87,0.00,,,1.16,TxWx,2013-05-22 16:41:00,
2013-05-22 12:46:00,76.0,71.0,29.83,South,180,15.0,15.0,86,0.00,,,1.16,TxWx,2013-05-22 16:46:00,
2013-05-22 12:51:00,76.0,71.0,29.83,SSW,202,11.0,11.0,86,0.00,,,1.16,TxWx,2013-05-22 16:51:00,
2013-05-22 12:57:00,77.0,72.0,29.82,SSE,157,12.0,13.0,85,0.00,,,1.16,TxWx,2013-05-22 16:57:00,
2013-05-22 13:02:00,77.0,72.0,29.82,WSW,247,3.0,5.0,85,0.00,,,1.16,TxWx,2013-05-22 17:02:00,
2013-05-22 13:07:00,78.0,73.0,29.82,South,180,4.0,9.0,85,0.00,,,1.16,TxWx,2013-05-22 17:07:00,
2013-05-22 13:12:00,78.0,73.0,29.82,SW,225,9.0,12.0,84,0.00,,,1.16,TxWx,2013-05-22 17:12:00,
2013-05-22 13:17:00,78.0,72.0,29.82,SSE,157,2.0,4.0,83,0.00,,,1.16,TxWx,2013-05-22 17:17:00,
2013-05-22 13:22:00,78.0,72.0,29.82,ESE,112,6.0,11.0,83,0.00,,,1.16,TxWx,2013-05-22 17:22:00,
2013-05-22 13:27:00,78.0,72.0,29.81,SE,135,4.0,7.0,83,0.00,,,1.16,TxWx,2013-05-22 17:27:00,
2013-05-22 13:32:00,78.0,72.0,29.81,South,180,5.0,7.0,82,0.00,,,1.16,TxWx,2013-05-22 17:32:00,
2013-05-22 13:37:00,78.0,72.0,29.81,SSE,157,7.0,10.0,82,0.00,,,1.16,TxWx,2013-05-22 17:37:00,
2013-05-22 13:42:00,78.0,72.0,29.81,SE,135,7.0,11.0,82,0.00,,,1.16,TxWx,2013-05-22 17:42:00,
2013-05-22 13:47:00,78.0,72.0,29.81,SSE,157,11.0,15.0,82,0.00,,,1.16,TxWx,2013-05-22 17:47:00,
2013-05-22 13:52:00,78.0,72.0,29.80,ESE,112,11.0,14.0,81,0.00,,,1.16,TxWx,2013-05-22 17:52:00,
2013-05-22 13:57:00,78.0,72.0,29.80,South,180,13.0,15.0,81,0.00,,,1.16,TxWx,2013-05-22 17:57:00,
2013-05-22 14:02:00,78.0,72.0,29.79,SSE,157,6.0,8.0,82,0.00,,,1.16,TxWx,2013-05-22 18:02:00,
2013-05-22 14:08:00,79.0,72.0,29.79,SSW,202,4.0,5.0,81,0.00,,,1.16,TxWx,2013-05-22 18:08:00,
2013-05-22 14:13:00,78.0,71.0,29.80,ESE,112,10.0,13.0,81,0.00,,,1.16,TxWx,2013-05-22 18:13:00,
2013-05-22 14:18:00,77.0,71.0,29.81,ESE,112,5.0,7.0,82,0.00,,,1.16,TxWx,2013-05-22 18:18:00,
2013-05-22 14:23:00,77.0,71.0,29.80,South,180,8.0,8.0,83,0.00,,,1.16,TxWx,2013-05-22 18:23:00,
2013-05-22 14:28:00,77.0,72.0,29.80,South,180,5.0,6.0,84,0.00,,,1.16,TxWx,2013-05-22 18:28:00,
2013-05-22 14:33:00,77.0,72.0,29.80,SE,135,5.0,7.0,84,0.00,,,1.16,TxWx,2013-05-22 18:33:00,
2013-05-22 14:38:00,76.0,71.0,29.82,SE,135,6.0,8.0,85,0.00,,,1.16,TxWx,2013-05-22 18:38:00,
2013-05-22 14:43:00,76.0,71.0,29.82,South,180,8.0,8.0,86,0.00,,,1.16,TxWx,2013-05-22 18:43:00,
2013-05-22 14:48:00,75.0,71.0,29.83,SSE,157,2.0,3.0,88,0.00,,,1.16,TxWx,2013-05-22 18:48:00,
2013-05-22 14:53:00,75.0,72.0,29.84,South,180,8.0,9.0,89,0.00,,,1.16,TxWx,2013-05-22 18:53:00,
2013-05-22 14:58:00,75.0,72.0,29.84,SSW,202,8.0,10.0,90,0.00,,,1.16,TxWx,2013-05-22 18:58:00,
2013-05-22 15:01:00,75.0,72.0,29.77,ESE,112,6.0,8.0,91,0.00,,,0.00,TxWx,2013-05-22 19:01:00,
2013-05-22 15:02:00,75.0,72.0,29.77,South,180,6.0,10.0,91,0.00,,,0.00,TxWx,2013-05-22 19:02:00,
2013-05-22 15:03:00,75.0,72.0,29.85,SSW,202,7.0,8.0,92,0.60,,,1.18,TxWx,2013-05-22 19:03:00,
2013-05-22 15:04:00,75.0,72.0,29.77,SSE,157,5.0,6.0,91,0.00,,,0.00,TxWx,2013-05-22 19:04:00,
2013-05-22 15:08:00,74.0,72.0,29.86,West,270,3.0,5.0,93,0.60,,,1.19,TxWx,2013-05-22 19:08:00,
2013-05-22 15:13:00,73.0,71.0,29.85,South,180,3.0,4.0,95,0.60,,,1.22,TxWx,2013-05-22 19:13:00,
2013-05-22 15:19:00,73.0,71.0,29.84,NNW,337,3.0,3.0,95,0.60,,,1.25,TxWx,2013-05-22 19:19:00,
2013-05-22 15:24:00,72.0,70.0,29.85,SW,225,5.0,5.0,95,0.60,,,1.28,TxWx,2013-05-22 19:24:00,
2013-05-22 15:29:00,71.0,70.0,29.84,NE,45,1.0,2.0,96,0.60,,,1.30,TxWx,2013-05-22 19:29:00,
2013-05-22 15:30:00,75.0,73.0,29.77,SE,135,11.0,15.0,92,0.00,,,0.00,TxWx,2013-05-22 19:30:00,
2013-05-22 15:31:00,75.0,73.0,29.78,South,180,5.0,6.0,92,0.00,,,0.00,TxWx,2013-05-22 19:31:00,
2013-05-22 15:32:00,75.0,73.0,29.78,SSE,157,5.0,8.0,92,0.00,,,0.00,TxWx,2013-05-22 19:32:00,
2013-05-22 15:33:00,75.0,73.0,29.78,SSE,157,8.0,8.0,92,0.00,,,0.00,TxWx,2013-05-22 19:33:00,
2013-05-22 15:34:00,71.0,70.0,29.84,WSW,247,0.0,0.0,96,0.60,,,1.32,TxWx,2013-05-22 19:34:00,
2013-05-22 15:35:00,75.0,73.0,29.78,SE,135,6.0,8.0,92,0.00,,,0.00,TxWx,2013-05-22 19:35:00,
2013-05-22 15:39:00,71.0,70.0,29.84,NNE,22,0.0,0.0,96,0.60,,,1.33,TxWx,2013-05-22 19:39:00,
2013-05-22 15:44:00,71.0,70.0,29.83,NNE,22,2.0,3.0,97,0.60,,,1.35,TxWx,2013-05-22 19:44:00,
2013-05-22 15:49:00,70.0,69.0,29.83,NNE,22,2.0,3.0,97,0.60,,,1.36,TxWx,2013-05-22 19:49:00,
2013-05-22 15:54:00,70.0,69.0,29.83,NNE,22,3.0,5.0,98,0.60,,,1.37,TxWx,2013-05-22 19:54:00,
2013-05-22 15:59:00,70.0,69.0,29.82,East,90,2.0,2.0,98,0.60,,,1.37,TxWx,2013-05-22 19:59:00,
2013-05-22 16:04:00,70.0,69.0,29.81,NNE,22,1.0,1.0,98,0.60,,,1.37,TxWx,2013-05-22 20:04:00,
2013-05-22 16:09:00,70.0,69.0,29.81,ENE,67,3.0,4.0,98,0.60,,,1.37,TxWx,2013-05-22 20:09:00,
2013-05-22 16:14:00,70.0,70.0,29.81,East,90,0.0,0.0,99,0.00,,,1.37,TxWx,2013-05-22 20:14:00,
2013-05-22 16:19:00,70.0,70.0,29.80,ESE,112,0.0,0.0,99,0.00,,,1.37,TxWx,2013-05-22 20:19:00,
2013-05-22 16:24:00,70.0,70.0,29.80,ESE,112,0.0,0.0,100,0.00,,,1.37,TxWx,2013-05-22 20:24:00,
2013-05-22 16:30:00,70.0,70.0,29.80,ESE,112,0.0,0.0,100,0.00,,,1.37,TxWx,2013-05-22 20:30:00,
2013-05-22 16:35:00,71.0,71.0,29.79,SSE,157,0.0,0.0,100,0.00,,,1.37,TxWx,2013-05-22 20:35:00,
2013-05-22 16:40:00,71.0,71.0,29.79,WSW,247,0.0,0.0,100,0.00,,,1.37,TxWx,2013-05-22 20:40:00,
2013-05-22 16:45:00,72.0,72.0,29.79,ESE,112,0.0,0.0,100,0.00,,,1.37,TxWx,2013-05-22 20:45:00,
2013-05-22 16:50:00,73.0,73.0,29.79,East,90,0.0,0.0,100,0.00,,,1.37,TxWx,2013-05-22 20:50:00,
2013-05-22 16:55:00,73.0,73.0,29.79,East,90,0.0,0.0,100,0.00,,,1.37,TxWx,2013-05-22 20:55:00,
2013-05-22 17:00:00,74.0,74.0,29.79,South,180,3.0,3.0,100,0.00,,,1.37,TxWx,2013-05-22 21:00:00,
2013-05-22 17:05:00,74.0,74.0,29.79,SSE,157,0.0,2.0,100,0.00,,,1.37,TxWx,2013-05-22 21:05:00,
2013-05-22 17:10:00,75.0,75.0,29.79,SSE,157,5.0,5.0,100,0.00,,,1.37,TxWx,2013-05-22 21:10:00,
2013-05-22 17:11:00,74.0,70.0,29.76,SSE,157,3.0,6.0,87,0.00,,,0.00,TxWx,2013-05-22 21:11:00,
2013-05-22 17:15:00,75.0,75.0,29.79,SSW,202,2.0,3.0,100,0.00,,,1.37,TxWx,2013-05-22 21:15:00,
2013-05-22 17:20:00,75.0,75.0,29.78,South,180,6.0,6.0,100,0.00,,,1.37,TxWx,2013-05-22 21:20:00,
2013-05-22 17:21:00,74.0,69.0,29.76,South,180,3.0,4.0,86,0.00,,,0.00,TxWx,2013-05-22 21:21:00,
2013-05-22 17:26:00,75.0,75.0,29.78,SSE,157,7.0,8.0,99,0.00,,,1.37,TxWx,2013-05-22 21:26:00,
2013-05-22 17:30:00,74.0,69.0,29.76,South,180,5.0,7.0,85,0.00,,,0.00,TxWx,2013-05-22 21:30:00,
2013-05-22 17:31:00,76.0,76.0,29.78,ESE,112,6.0,8.0,99,0.00,,,1.37,TxWx,2013-05-22 21:31:00,
2013-05-22 17:36:00,76.0,75.0,29.78,SE,135,5.0,8.0,98,0.00,,,1.37,TxWx,2013-05-22 21:36:00,
2013-05-22 17:41:00,76.0,75.0,29.77,South,180,4.0,4.0,97,0.00,,,1.37,TxWx,2013-05-22 21:41:00,
2013-05-22 17:46:00,76.0,75.0,29.77,ESE,112,4.0,6.0,96,0.00,,,1.37,TxWx,2013-05-22 21:46:00,
2013-05-22 17:51:00,76.0,75.0,29.77,SSE,157,3.0,4.0,96,0.00,,,1.37,TxWx,2013-05-22 21:51:00,
2013-05-22 17:56:00,77.0,75.0,29.77,SE,135,5.0,6.0,95,0.00,,,1.37,TxWx,2013-05-22 21:56:00,
2013-05-22 18:01:00,77.0,75.0,29.77,SSE,157,5.0,8.0,95,0.00,,,1.37,TxWx,2013-05-22 22:01:00,
2013-05-22 18:06:00,77.0,75.0,29.77,SE,135,4.0,5.0,94,0.00,,,1.37,TxWx,2013-05-22 22:06:00,
2013-05-22 18:11:00,77.0,75.0,29.77,ESE,112,5.0,6.0,93,0.00,,,1.37,TxWx,2013-05-22 22:11:00,
2013-05-22 18:13:00,73.0,68.0,29.75,South,180,4.0,5.0,85,0.00,,,0.00,TxWx,2013-05-22 22:13:00,
2013-05-22 18:14:00,73.0,68.0,29.75,SSE,157,2.0,3.0,85,0.00,,,0.00,TxWx,2013-05-22 22:14:00,
2013-05-22 18:15:00,73.0,68.0,29.75,South,180,8.0,8.0,85,0.00,,,0.00,TxWx,2013-05-22 22:15:00,
2013-05-22 18:16:00,77.0,75.0,29.77,ESE,112,6.0,8.0,93,0.00,,,1.37,TxWx,2013-05-22 22:16:00,
2013-05-22 18:21:00,77.0,75.0,29.77,ESE,112,4.0,5.0,93,0.00,,,1.37,TxWx,2013-05-22 22:21:00,
2013-05-22 18:26:00,77.0,74.0,29.77,ESE,112,3.0,6.0,92,0.00,,,1.37,TxWx,2013-05-22 22:26:00,
2013-05-22 18:31:00,77.0,74.0,29.77,South,180,3.0,5.0,92,0.00,,,1.37,TxWx,2013-05-22 22:31:00,
2013-05-22 18:37:00,77.0,74.0,29.77,SSE,157,5.0,6.0,92,0.00,,,1.37,TxWx,2013-05-22 22:37:00,
2013-05-22 18:42:00,77.0,74.0,29.77,SSE,157,5.0,6.0,91,0.00,,,1.37,TxWx,2013-05-22 22:42:00,
2013-05-22 18:47:00,77.0,74.0,29.77,SE,135,3.0,3.0,91,0.00,,,1.37,TxWx,2013-05-22 22:47:00,
2013-05-22 18:51:00,72.0,68.0,29.76,ESE,112,0.0,1.0,89,0.00,,,0.00,TxWx,2013-05-22 22:51:00,
2013-05-22 18:52:00,77.0,74.0,29.78,ESE,112,5.0,5.0,91,0.00,,,1.37,TxWx,2013-05-22 22:52:00,
2013-05-22 18:57:00,77.0,74.0,29.77,SE,135,3.0,4.0,91,0.00,,,1.37,TxWx,2013-05-22 22:57:00,
2013-05-22 19:02:00,77.0,74.0,29.77,SE,135,2.0,2.0,91,0.00,,,1.37,TxWx,2013-05-22 23:02:00,
2013-05-22 19:07:00,77.0,74.0,29.77,SSE,157,4.0,4.0,91,0.00,,,1.37,TxWx,2013-05-22 23:07:00,
2013-05-22 19:12:00,77.0,74.0,29.78,ESE,112,3.0,3.0,90,0.00,,,1.37,TxWx,2013-05-22 23:12:00,
2013-05-22 19:17:00,77.0,74.0,29.78,SE,135,3.0,3.0,90,0.00,,,1.37,TxWx,2013-05-22 23:17:00,
2013-05-22 19:22:00,77.0,74.0,29.77,ESE,112,0.0,0.0,90,0.00,,,1.37,TxWx,2013-05-22 23:22:00,
2013-05-22 19:27:00,77.0,74.0,29.77,East,90,3.0,3.0,90,0.00,,,1.37,TxWx,2013-05-22 23:27:00,
2013-05-22 19:32:00,77.0,74.0,29.77,ESE,112,1.0,2.0,90,0.00,,,1.37,TxWx,2013-05-22 23:32:00,
2013-05-22 19:37:00,77.0,74.0,29.77,South,180,4.0,4.0,90,0.00,,,1.37,TxWx,2013-05-22 23:37:00,
2013-05-22 19:42:00,77.0,74.0,29.77,ESE,112,1.0,4.0,90,0.00,,,1.37,TxWx,2013-05-22 23:42:00,
2013-05-22 19:47:00,77.0,74.0,29.77,SE,135,0.0,2.0,90,0.00,,,1.37,TxWx,2013-05-22 23:47:00,
2013-05-22 19:53:00,77.0,74.0,29.77,East,90,0.0,0.0,90,0.00,,,1.37,TxWx,2013-05-22 23:53:00,
2013-05-22 19:58:00,77.0,74.0,29.77,ESE,112,3.0,3.0,90,0.00,,,1.37,TxWx,2013-05-22 23:58:00,
2013-05-22 20:03:00,77.0,74.0,29.77,SE,135,3.0,3.0,90,0.00,,,1.37,TxWx,2013-05-23 00:03:00,
2013-05-22 20:08:00,77.0,74.0,29.77,ESE,112,1.0,2.0,90,0.00,,,1.37,TxWx,2013-05-23 00:08:00,
2013-05-22 20:13:00,76.0,73.0,29.77,ESE,112,3.0,3.0,91,0.00,,,1.37,TxWx,2013-05-23 00:13:00,
2013-05-22 20:18:00,76.0,73.0,29.77,East,90,3.0,3.0,91,0.00,,,1.37,TxWx,2013-05-23 00:18:00,
2013-05-22 20:23:00,76.0,73.0,29.77,SSE,157,2.0,3.0,91,0.00,,,1.37,TxWx,2013-05-23 00:23:00,
2013-05-22 20:28:00,76.0,73.0,29.77,SE,135,3.0,5.0,92,0.00,,,1.37,TxWx,2013-05-23 00:28:00,
2013-05-22 20:33:00,76.0,73.0,29.77,SE,135,2.0,3.0,92,0.00,,,1.37,TxWx,2013-05-23 00:33:00,
2013-05-22 20:38:00,76.0,73.0,29.77,SSE,157,2.0,3.0,92,0.00,,,1.37,TxWx,2013-05-23 00:38:00,
2013-05-22 20:43:00,76.0,73.0,29.77,South,180,6.0,6.0,92,0.00,,,1.37,TxWx,2013-05-23 00:43:00,
2013-05-22 20:48:00,76.0,73.0,29.77,SSE,157,5.0,5.0,92,0.00,,,1.37,TxWx,2013-05-23 00:48:00,
2013-05-22 20:53:00,76.0,73.0,29.77,SSE,157,3.0,4.0,92,0.00,,,1.37,TxWx,2013-05-23 00:53:00,
2013-05-22 20:58:00,76.0,73.0,29.77,SE,135,3.0,6.0,92,0.00,,,1.37,TxWx,2013-05-23 00:58:00,
2013-05-22 21:03:00,76.0,73.0,29.77,SSE,157,6.0,8.0,92,0.00,,,1.37,TxWx,2013-05-23 01:03:00,
2013-05-22 21:09:00,76.0,73.0,29.78,ESE,112,3.0,5.0,92,0.00,,,1.37,TxWx,2013-05-23 01:09:00,
2013-05-22 21:14:00,76.0,73.0,29.78,SE,135,3.0,4.0,92,0.00,,,1.37,TxWx,2013-05-23 01:14:00,
2013-05-22 21:19:00,76.0,73.0,29.78,SSE,157,3.0,4.0,92,0.00,,,1.37,TxWx,2013-05-23 01:19:00,
2013-05-22 21:24:00,75.0,73.0,29.78,SSE,157,3.0,4.0,92,0.00,,,1.37,TxWx,2013-05-23 01:24:00,
2013-05-22 21:26:00,69.0,66.0,29.80,South,180,3.0,5.0,90,0.00,,,0.00,TxWx,2013-05-23 01:26:00,
2013-05-22 21:27:00,69.0,66.0,29.80,SSE,157,6.0,7.0,90,0.00,,,0.00,TxWx,2013-05-23 01:27:00,
2013-05-22 21:28:00,69.0,66.0,29.80,SW,225,3.0,3.0,90,0.00,,,0.00,TxWx,2013-05-23 01:28:00,
2013-05-22 21:29:00,75.0,73.0,29.78,SE,135,3.0,5.0,92,0.00,,,1.37,TxWx,2013-05-23 01:29:00,
2013-05-22 21:30:00,69.0,66.0,29.80,South,180,5.0,7.0,90,0.00,,,0.00,TxWx,2013-05-23 01:30:00,
2013-05-22 21:34:00,75.0,73.0,29.79,ESE,112,3.0,5.0,92,0.00,,,1.37,TxWx,2013-05-23 01:34:00,
2013-05-22 21:39:00,75.0,73.0,29.78,ESE,112,1.0,1.0,92,0.00,,,1.37,TxWx,2013-05-23 01:39:00,
2013-05-22 21:40:00,69.0,66.0,29.80,SSE,157,7.0,7.0,90,0.00,,,0.00,TxWx,2013-05-23 01:40:00,
2013-05-22 21:41:00,69.0,66.0,29.80,SSE,157,4.0,8.0,90,0.00,,,0.00,TxWx,2013-05-23 01:41:00,
2013-05-22 21:43:00,69.0,66.0,29.80,SSE,157,6.0,8.0,90,0.00,,,0.00,TxWx,2013-05-23 01:43:00,
2013-05-22 21:44:00,75.0,73.0,29.78,ESE,112,3.0,3.0,92,0.00,,,1.37,TxWx,2013-05-23 01:44:00,
2013-05-22 21:45:00,69.0,66.0,29.80,SSE,157,5.0,5.0,90,0.00,,,0.00,TxWx,2013-05-23 01:45:00,
2013-05-22 21:49:00,75.0,73.0,29.78,SE,135,7.0,8.0,92,0.00,,,1.37,TxWx,2013-05-23 01:49:00,
2013-05-22 21:54:00,75.0,73.0,29.78,SE,135,3.0,6.0,92,0.00,,,1.37,TxWx,2013-05-23 01:54:00,
2013-05-22 21:59:00,75.0,73.0,29.78,South,180,8.0,8.0,92,0.00,,,1.37,TxWx,2013-05-23 01:59:00,
2013-05-22 22:04:00,75.0,73.0,29.78,SSE,157,3.0,3.0,92,0.00,,,1.37,TxWx,2013-05-23 02:04:00,
2013-05-22 22:09:00,75.0,73.0,29.78,SE,135,9.0,9.0,92,0.00,,,1.37,TxWx,2013-05-23 02:09:00,
2013-05-22 22:14:00,75.0,73.0,29.78,ESE,112,6.0,7.0,92,0.00,,,1.37,TxWx,2013-05-23 02:14:00,
2013-05-22 22:20:00,75.0,73.0,29.77,South,180,5.0,5.0,92,0.00,,,1.37,TxWx,2013-05-23 02:20:00,
2013-05-22 22:25:00,75.0,73.0,29.77,South,180,8.0,10.0,92,0.00,,,1.37,TxWx,2013-05-23 02:25:00,
2013-05-22 22:30:00,75.0,73.0,29.77,SSE,157,6.0,7.0,92,0.00,,,1.37,TxWx,2013-05-23 02:30:00,
2013-05-22 22:35:00,75.0,72.0,29.77,SSE,157,11.0,11.0,92,0.00,,,1.37,TxWx,2013-05-23 02:35:00,
2013-05-22 22:40:00,75.0,72.0,29.77,SSW,202,5.0,11.0,92,0.00,,,1.37,TxWx,2013-05-23 02:40:00,
2013-05-22 22:45:00,75.0,72.0,29.77,ENE,67,1.0,3.0,92,0.00,,,1.37,TxWx,2013-05-23 02:45:00,
2013-05-22 22:50:00,75.0,72.0,29.77,SE,135,9.0,9.0,92,0.00,,,1.37,TxWx,2013-05-23 02:50:00,
2013-05-22 22:55:00,75.0,72.0,29.77,ESE,112,4.0,6.0,91,0.00,,,1.37,TxWx,2013-05-23 02:55:00,
2013-05-22 23:00:00,75.0,72.0,29.77,SE,135,8.0,9.0,91,0.00,,,1.37,TxWx,2013-05-23 03:00:00,
2013-05-22 23:05:00,76.0,73.0,29.77,SSE,157,7.0,8.0,91,0.00,,,1.37,TxWx,2013-05-23 03:05:00,
2013-05-22 23:10:00,76.0,73.0,29.76,SE,135,4.0,7.0,91,0.00,,,1.37,TxWx,2013-05-23 03:10:00,
2013-05-22 23:15:00,76.0,73.0,29.76,SSE,157,7.0,8.0,91,0.00,,,1.37,TxWx,2013-05-23 03:15:00,
2013-05-22 23:20:00,76.0,73.0,29.76,SE,135,8.0,10.0,91,0.00,,,1.37,TxWx,2013-05-23 03:20:00,
2013-05-22 23:25:00,76.0,73.0,29.76,SE,135,8.0,8.0,91,0.00,,,1.37,TxWx,2013-05-23 03:25:00,
2013-05-22 23:31:00,76.0,73.0,29.76,ESE,112,7.0,9.0,91,0.00,,,1.37,TxWx,2013-05-23 03:31:00,
2013-05-22 23:36:00,76.0,73.0,29.76,East,90,5.0,8.0,91,0.00,,,1.37,TxWx,2013-05-23 03:36:00,
2013-05-22 23:41:00,76.0,73.0,29.77,SE,135,10.0,10.0,90,0.00,,,1.37,TxWx,2013-05-23 03:41:00,
2013-05-22 23:46:00,76.0,73.0,29.76,SSE,157,6.0,7.0,90,0.00,,,1.37,TxWx,2013-05-23 03:46:00,
2013-05-22 23:51:00,75.0,72.0,29.76,ESE,112,5.0,5.0,91,0.00,,,1.37,TxWx,2013-05-23 03:51:00,
2013-05-22 23:56:00,75.0,72.0,29.76,South,180,8.0,8.0,91,0.00,,,1.37,TxWx,2013-05-23 03:56:00,